This is the latest recevied weather packets stored in our database for station/object KG5WBN. If no packets are shown the sender has not sent any weather packets the latest 10 day(s).
| Time | Temp. | Humidity | Pressure | Rain* | Wind** | Luminosity | Snow |
|---|---|---|---|---|---|---|---|
| 1788565606 | 29.44° C | 53% | 1012.5 hPa | 0 mm | - | 33 W/m² | - |
| 1788565301 | 29.44° C | 53% | 1012.2 hPa | 0 mm | - | 35 W/m² | - |
| 1788564997 | 29.44° C | 53% | 1012.2 hPa | 0 mm | - | 32 W/m² | - |
| 1788564693 | 29.44° C | 53% | 1012.5 hPa | 0 mm | - | 32 W/m² | - |
| 1788564389 | 29.44° C | 54% | 1012.2 hPa | 0 mm | - | 30 W/m² | - |
| 1788564085 | 29.44° C | 52% | 1012.2 hPa | 0 mm | - | 30 W/m² | - |
| 1788563781 | 29.44° C | 52% | 1012.2 hPa | 0 mm | - | 31 W/m² | - |
| 1788563481 | 30° C | 52% | 1012.2 hPa | 0 mm | - | 34 W/m² | - |
| 1788563175 | 30° C | 52% | 1012.2 hPa | 0 mm | - | 37 W/m² | - |
| 1788562870 | 30° C | 53% | 1011.9 hPa | 0 mm | - | 39 W/m² | - |
| 1788562568 | 30° C | 53% | 1012.2 hPa | 0 mm | - | 44 W/m² | - |
| 1788562263 | 30° C | 53% | 1012.2 hPa | 0 mm | - | 42 W/m² | - |
| 1788561957 | 30.56° C | 52% | 1012.2 hPa | 0 mm | - | 49 W/m² | - |
| 1788561652 | 30.56° C | 51% | 1012.2 hPa | 0 mm | - | 78 W/m² | - |
| 1788561351 | 30.56° C | 51% | 1012.2 hPa | 0 mm | - | 260 W/m² | - |
| 1788561047 | 31.11° C | 50% | 1012.2 hPa | 0 mm | - | 273 W/m² | - |
| 1788560743 | 30.56° C | 51% | 1012.2 hPa | 0 mm | - | 281 W/m² | - |
| 1788560438 | 31.11° C | 50% | 1012.5 hPa | 0 mm | - | 280 W/m² | - |
| 1788560132 | 30.56° C | 51% | 1011.9 hPa | 0 mm | - | 306 W/m² | - |
| 1788559827 | 30.56° C | 51% | 1011.9 hPa | 0 mm | - | 316 W/m² | - |
| 1788559527 | 31.67° C | 50% | 1011.9 hPa | 0 mm | - | 320 W/m² | - |
| 1788559223 | 32.22° C | 49% | 1011.9 hPa | 0 mm | - | 323 W/m² | - |
| 1788558922 | 31.11° C | 50% | 1011.9 hPa | 0 mm | - | 320 W/m² | - |
| 1788558618 | 31.11° C | 50% | 1012.2 hPa | 0 mm | - | 329 W/m² | - |
| 1788558314 | 31.67° C | 50% | 1011.9 hPa | 0 mm | - | 329 W/m² | - |
* Rain latest hour (hover to see other rain measurements)
** Current wind speed in m/s (hover to see current wind gust speed)